Time,TemperatureF,DewpointF,PressureIn,WindDirection,WindDirectionDegrees,WindSpeedMPH,WindSpeedGustMPH,Humidity,HourlyPrecipIn,Conditions,Clouds,dailyrainin,SoftwareType,DateUTC
2013-02-23 00:03:00,36.0,28.0,-100.00,West,260,2.0,4.0,73,0.00,,,0.28,,2013-02-23 05:03:00,
2013-02-23 00:12:00,36.0,28.0,-100.00,West,260,2.0,4.0,73,0.00,,,0.28,,2013-02-23 05:12:00,
2013-02-23 00:23:00,36.0,28.0,-100.00,WNW,292,1.0,4.0,73,0.00,,,0.28,,2013-02-23 05:23:00,
2013-02-23 00:33:00,36.0,28.0,-100.00,WNW,292,1.0,4.0,73,0.00,,,0.28,,2013-02-23 05:33:00,
2013-02-23 00:42:00,36.0,28.0,-100.00,West,270,1.0,3.0,73,0.00,,,0.28,,2013-02-23 05:42:00,
2013-02-23 00:52:00,36.0,28.0,-100.00,West,270,1.0,3.0,73,0.00,,,0.28,,2013-02-23 05:52:00,
2013-02-23 01:02:00,36.0,28.0,-100.00,West,270,1.0,3.0,73,0.00,,,0.28,,2013-02-23 06:02:00,
2013-02-23 01:23:00,36.0,29.0,-100.00,West,280,1.0,3.0,74,0.00,,,0.28,,2013-02-23 06:23:00,
2013-02-23 01:32:00,36.0,29.0,-100.00,West,280,1.0,3.0,74,0.00,,,0.28,,2013-02-23 06:32:00,
2013-02-23 01:42:00,36.0,29.0,-100.00,WSW,247,1.0,3.0,76,0.00,,,0.28,,2013-02-23 06:42:00,
2013-02-23 01:52:00,36.0,29.0,-100.00,SW,227,1.0,4.0,75,0.00,,,0.28,,2013-02-23 06:52:00,
2013-02-23 02:01:00,36.0,29.0,-100.00,SW,227,1.0,4.0,75,0.00,,,0.28,,2013-02-23 07:01:00,
2013-02-23 02:11:00,36.0,29.0,-100.00,SW,227,1.0,4.0,75,0.00,,,0.28,,2013-02-23 07:11:00,
2013-02-23 02:21:00,36.0,29.0,-100.00,SW,233,2.0,4.0,76,0.00,,,0.28,,2013-02-23 07:21:00,
2013-02-23 02:32:00,36.0,29.0,-100.00,SW,233,2.0,4.0,76,0.00,,,0.28,,2013-02-23 07:32:00,
2013-02-23 02:42:00,36.0,28.0,-100.00,WNW,292,1.0,3.0,74,0.00,,,0.28,,2013-02-23 07:42:00,
2013-02-23 02:52:00,36.0,28.0,-100.00,NE,52,1.0,2.0,74,0.00,,,0.28,,2013-02-23 07:52:00,
2013-02-23 03:01:00,36.0,28.0,-100.00,NE,52,1.0,2.0,74,0.00,,,0.28,,2013-02-23 08:01:00,
2013-02-23 03:11:00,36.0,28.0,-100.00,NE,52,1.0,2.0,74,0.00,,,0.28,,2013-02-23 08:11:00,
2013-02-23 03:21:00,36.0,29.0,-100.00,West,264,1.0,2.0,75,0.00,,,0.28,,2013-02-23 08:21:00,
2013-02-23 03:32:00,36.0,29.0,-100.00,West,264,1.0,2.0,75,0.00,,,0.28,,2013-02-23 08:32:00,
2013-02-23 03:42:00,35.0,29.0,-100.00,SSW,206,1.0,4.0,77,0.00,,,0.28,,2013-02-23 08:42:00,
2013-02-23 03:53:00,35.0,29.0,-100.00,SSW,206,1.0,4.0,77,0.00,,,0.28,,2013-02-23 08:53:00,
2013-02-23 04:02:00,35.0,29.0,-100.00,SSW,195,3.0,7.0,77,0.00,,,0.28,,2013-02-23 09:02:00,
2013-02-23 04:11:00,35.0,29.0,-100.00,SSW,195,3.0,7.0,77,0.00,,,0.28,,2013-02-23 09:11:00,
2013-02-23 04:22:00,35.0,29.0,-100.00,SSW,195,3.0,7.0,77,0.00,,,0.28,,2013-02-23 09:22:00,
2013-02-23 04:42:00,35.0,28.0,-100.00,NNE,27,1.0,2.0,75,0.00,,,0.28,,2013-02-23 09:42:00,
2013-02-23 04:52:00,35.0,28.0,-100.00,NNE,27,1.0,2.0,75,0.00,,,0.28,,2013-02-23 09:52:00,
2013-02-23 05:01:00,35.0,29.0,-100.00,SW,224,1.0,3.0,78,0.00,,,0.28,,2013-02-23 10:01:00,
2013-02-23 05:11:00,35.0,29.0,-100.00,SW,224,1.0,3.0,78,0.00,,,0.28,,2013-02-23 10:11:00,
2013-02-23 05:21:00,35.0,28.0,-100.00,ENE,72,1.0,6.0,76,0.00,,,0.28,,2013-02-23 10:21:00,
2013-02-23 05:32:00,35.0,28.0,-100.00,ENE,72,1.0,6.0,76,0.00,,,0.28,,2013-02-23 10:32:00,
2013-02-23 05:42:00,35.0,28.0,-100.00,NNE,20,1.0,3.0,76,0.00,,,0.28,,2013-02-23 10:42:00,
2013-02-23 05:52:00,35.0,28.0,-100.00,NNE,20,1.0,3.0,76,0.00,,,0.28,,2013-02-23 10:52:00,
2013-02-23 06:02:00,35.0,29.0,-100.00,ENE,61,3.0,6.0,77,0.00,,,0.28,,2013-02-23 11:02:00,
2013-02-23 06:11:00,35.0,29.0,-100.00,ENE,61,3.0,6.0,77,0.00,,,0.28,,2013-02-23 11:11:00,
2013-02-23 06:22:00,35.0,29.0,-100.00,NNE,27,3.0,5.0,76,0.03,,,0.28,,2013-02-23 11:22:00,
2013-02-23 06:32:00,35.0,29.0,-100.00,NNE,27,3.0,5.0,76,0.03,,,0.28,,2013-02-23 11:32:00,
2013-02-23 06:42:00,35.0,30.0,-100.00,NW,308,1.0,3.0,82,0.04,,,0.31,,2013-02-23 11:42:00,
2013-02-23 06:53:00,35.0,30.0,-100.00,NW,308,1.0,3.0,82,0.04,,,0.31,,2013-02-23 11:53:00,
2013-02-23 07:02:00,34.0,31.0,-100.00,WNW,285,1.0,4.0,87,0.00,,,0.29,,2013-02-23 12:02:00,
2013-02-23 07:11:00,34.0,31.0,-100.00,WNW,285,1.0,4.0,87,0.00,,,0.29,,2013-02-23 12:11:00,
2013-02-23 07:22:00,34.0,31.0,-100.00,NW,318,1.0,4.0,88,0.00,,,0.22,,2013-02-23 12:22:00,
2013-02-23 07:32:00,34.0,31.0,-100.00,NW,318,1.0,4.0,88,0.00,,,0.22,,2013-02-23 12:32:00,
2013-02-23 07:42:00,34.0,31.0,-100.00,NE,52,5.0,9.0,87,0.00,,,0.16,,2013-02-23 12:42:00,
2013-02-23 07:53:00,34.0,31.0,-100.00,NE,52,6.0,9.0,86,0.00,,,0.12,,2013-02-23 12:53:00,
2013-02-23 08:02:00,34.0,31.0,-100.00,NE,52,6.0,9.0,86,0.00,,,0.12,,2013-02-23 13:02:00,
2013-02-23 08:12:00,34.0,31.0,-100.00,NE,52,6.0,9.0,86,0.00,,,0.12,,2013-02-23 13:12:00,
2013-02-23 08:22:00,34.0,30.0,-100.00,NE,52,5.0,9.0,85,0.00,,,0.06,,2013-02-23 13:22:00,
2013-02-23 08:32:00,34.0,30.0,-100.00,NE,52,5.0,9.0,85,0.00,,,0.06,,2013-02-23 13:32:00,
2013-02-23 08:42:00,35.0,31.0,-100.00,NNE,32,2.0,5.0,86,0.00,,,0.04,,2013-02-23 13:42:00,
2013-02-23 08:52:00,35.0,31.0,-100.00,North,10,1.0,3.0,85,0.00,,,0.04,,2013-02-23 13:52:00,
2013-02-23 09:02:00,35.0,31.0,-100.00,North,10,1.0,3.0,85,0.00,,,0.04,,2013-02-23 14:02:00,
2013-02-23 09:11:00,35.0,31.0,-100.00,North,10,1.0,3.0,85,0.00,,,0.04,,2013-02-23 14:11:00,
2013-02-23 09:22:00,35.0,31.0,-100.00,NW,325,1.0,4.0,85,0.00,,,0.04,,2013-02-23 14:22:00,
2013-02-23 09:32:00,35.0,31.0,-100.00,NW,325,1.0,4.0,85,0.00,,,0.04,,2013-02-23 14:32:00,
2013-02-23 09:42:00,36.0,32.0,-100.00,WNW,288,1.0,4.0,84,0.00,,,0.04,,2013-02-23 14:42:00,
2013-02-23 09:52:00,36.0,31.0,-100.00,WSW,241,2.0,4.0,82,0.00,,,0.04,,2013-02-23 14:52:00,
2013-02-23 10:02:00,36.0,31.0,-100.00,WSW,241,2.0,4.0,82,0.00,,,0.04,,2013-02-23 15:02:00,
2013-02-23 10:11:00,36.0,31.0,-100.00,WSW,241,2.0,4.0,82,0.00,,,0.04,,2013-02-23 15:11:00,
2013-02-23 10:22:00,37.0,31.0,-100.00,WSW,248,2.0,3.0,81,0.00,,,0.04,,2013-02-23 15:22:00,
2013-02-23 10:32:00,37.0,31.0,-100.00,WSW,248,2.0,3.0,81,0.00,,,0.04,,2013-02-23 15:32:00,
2013-02-23 10:42:00,37.0,32.0,-100.00,SSW,198,2.0,5.0,81,0.00,,,0.04,,2013-02-23 15:42:00,
2013-02-23 10:52:00,38.0,32.0,-100.00,SE,131,2.0,4.0,80,0.00,,,0.04,,2013-02-23 15:52:00,
2013-02-23 11:01:00,38.0,32.0,-100.00,SE,131,2.0,4.0,80,0.00,,,0.04,,2013-02-23 16:01:00,
2013-02-23 11:11:00,38.0,32.0,-100.00,SE,131,2.0,4.0,80,0.00,,,0.04,,2013-02-23 16:11:00,
2013-02-23 11:22:00,38.0,32.0,-100.00,SW,233,2.0,4.0,78,0.00,,,0.04,,2013-02-23 16:22:00,
2013-02-23 11:32:00,38.0,32.0,-100.00,SW,233,2.0,4.0,78,0.00,,,0.04,,2013-02-23 16:32:00,
2013-02-23 11:42:00,39.0,33.0,-100.00,SSW,208,3.0,6.0,77,0.00,,,0.04,,2013-02-23 16:42:00,
2013-02-23 11:52:00,39.0,33.0,-100.00,SSW,208,3.0,6.0,77,0.00,,,0.04,,2013-02-23 16:52:00,
2013-02-23 12:01:00,40.0,33.0,-100.00,SSW,196,4.0,6.0,75,0.00,,,0.04,,2013-02-23 17:01:00,
2013-02-23 12:11:00,40.0,33.0,-100.00,SSW,196,4.0,6.0,75,0.00,,,0.04,,2013-02-23 17:11:00,
2013-02-23 12:22:00,42.0,33.0,-100.00,SSW,210,3.0,6.0,73,0.00,,,0.04,,2013-02-23 17:22:00,
2013-02-23 12:32:00,42.0,33.0,-100.00,SSW,205,3.0,6.0,70,0.00,,,0.04,,2013-02-23 17:32:00,
2013-02-23 12:42:00,42.0,33.0,-100.00,SSW,205,3.0,6.0,70,0.00,,,0.04,,2013-02-23 17:42:00,
2013-02-23 12:52:00,44.0,34.0,-100.00,SSW,202,3.0,6.0,69,0.00,,,0.04,,2013-02-23 17:52:00,
2013-02-23 13:02:00,44.0,34.0,-100.00,SSW,202,3.0,6.0,69,0.00,,,0.04,,2013-02-23 18:02:00,
2013-02-23 13:12:00,44.0,34.0,-100.00,SSW,202,3.0,6.0,69,0.00,,,0.04,,2013-02-23 18:12:00,
2013-02-23 13:22:00,44.0,34.0,-100.00,SSW,196,3.0,7.0,67,0.00,,,0.04,,2013-02-23 18:22:00,
2013-02-23 13:32:00,44.0,34.0,-100.00,SSW,196,3.0,7.0,67,0.00,,,0.04,,2013-02-23 18:32:00,
2013-02-23 13:42:00,45.0,35.0,-100.00,SSW,200,2.0,5.0,65,0.00,,,0.04,,2013-02-23 18:42:00,
2013-02-23 13:52:00,45.0,35.0,-100.00,SSW,200,2.0,5.0,65,0.00,,,0.04,,2013-02-23 18:52:00,
2013-02-23 14:01:00,47.0,36.0,-100.00,SSW,193,3.0,6.0,66,0.00,,,0.04,,2013-02-23 19:01:00,
2013-02-23 14:11:00,47.0,36.0,-100.00,SSW,193,3.0,6.0,66,0.00,,,0.04,,2013-02-23 19:11:00,
2013-02-23 14:21:00,49.0,36.0,-100.00,SSW,208,2.0,5.0,60,0.00,,,0.04,,2013-02-23 19:21:00,
2013-02-23 14:32:00,49.0,36.0,-100.00,SSW,208,2.0,5.0,60,0.00,,,0.04,,2013-02-23 19:32:00,
2013-02-23 14:42:00,50.0,36.0,-100.00,SE,128,3.0,6.0,60,0.00,,,0.04,,2013-02-23 19:42:00,
2013-02-23 14:52:00,50.0,36.0,-100.00,SE,128,3.0,6.0,60,0.00,,,0.04,,2013-02-23 19:52:00,
2013-02-23 15:01:00,52.0,37.0,-100.00,SE,131,2.0,5.0,56,0.00,,,0.04,,2013-02-23 20:01:00,
2013-02-23 15:11:00,52.0,37.0,-100.00,SE,131,2.0,5.0,56,0.00,,,0.04,,2013-02-23 20:11:00,
2013-02-23 15:22:00,51.0,37.0,-100.00,South,189,4.0,7.0,59,0.00,,,0.04,,2013-02-23 20:22:00,
2013-02-23 15:32:00,51.0,37.0,-100.00,South,189,4.0,7.0,59,0.00,,,0.04,,2013-02-23 20:32:00,
2013-02-23 15:42:00,51.0,38.0,-100.00,South,182,4.0,6.0,60,0.00,,,0.04,,2013-02-23 20:42:00,
2013-02-23 15:53:00,53.0,38.0,-100.00,South,178,2.0,4.0,57,0.00,,,0.04,,2013-02-23 20:53:00,
2013-02-23 16:02:00,53.0,38.0,-100.00,South,178,2.0,4.0,57,0.00,,,0.04,,2013-02-23 21:02:00,
2013-02-23 16:11:00,53.0,38.0,-100.00,South,178,2.0,4.0,57,0.00,,,0.04,,2013-02-23 21:11:00,
2013-02-23 16:22:00,54.0,38.0,-100.00,SW,219,3.0,5.0,56,0.00,,,0.04,,2013-02-23 21:22:00,
2013-02-23 16:32:00,53.0,39.0,-100.00,SW,219,2.0,4.0,58,0.00,,,0.04,,2013-02-23 21:32:00,
2013-02-23 16:42:00,53.0,39.0,-100.00,SW,219,2.0,4.0,58,0.00,,,0.04,,2013-02-23 21:42:00,
2013-02-23 16:52:00,53.0,39.0,-100.00,SW,219,2.0,4.0,58,0.00,,,0.04,,2013-02-23 21:52:00,
2013-02-23 17:02:00,53.0,39.0,-100.00,WSW,237,2.0,5.0,58,0.00,,,0.04,,2013-02-23 22:02:00,
2013-02-23 17:11:00,53.0,39.0,-100.00,WSW,237,2.0,5.0,58,0.00,,,0.04,,2013-02-23 22:11:00,
2013-02-23 17:22:00,53.0,39.0,-100.00,South,191,2.0,4.0,58,0.00,,,0.04,,2013-02-23 22:22:00,
2013-02-23 17:32:00,53.0,39.0,-100.00,South,191,2.0,4.0,58,0.00,,,0.04,,2013-02-23 22:32:00,
2013-02-23 17:42:00,53.0,39.0,-100.00,SSW,192,2.0,4.0,59,0.00,,,0.04,,2013-02-23 22:42:00,
2013-02-23 17:52:00,53.0,39.0,-100.00,SSW,192,2.0,4.0,59,0.00,,,0.04,,2013-02-23 22:52:00,
2013-02-23 18:01:00,53.0,39.0,-100.00,SSE,168,1.0,3.0,58,0.00,,,0.04,,2013-02-23 23:01:00,
2013-02-23 18:11:00,53.0,39.0,-100.00,SSE,168,1.0,3.0,58,0.00,,,0.04,,2013-02-23 23:11:00,
2013-02-23 18:22:00,50.0,39.0,-100.00,North,350,0.0,2.0,65,0.00,,,0.04,,2013-02-23 23:22:00,
2013-02-23 18:32:00,50.0,39.0,-100.00,North,350,0.0,2.0,65,0.00,,,0.04,,2013-02-23 23:32:00,
2013-02-23 18:42:00,49.0,39.0,-100.00,WNW,288,0.0,2.0,68,0.00,,,0.04,,2013-02-23 23:42:00,
2013-02-23 18:52:00,49.0,39.0,-100.00,WNW,288,0.0,2.0,68,0.00,,,0.04,,2013-02-23 23:52:00,
2013-02-23 19:02:00,48.0,39.0,-100.00,NNE,23,3.0,6.0,70,0.00,,,0.04,,2013-02-24 00:02:00,
2013-02-23 19:11:00,48.0,39.0,-100.00,NNE,23,3.0,6.0,70,0.00,,,0.04,,2013-02-24 00:11:00,
2013-02-23 19:22:00,47.0,38.0,-100.00,WSW,248,1.0,3.0,73,0.00,,,0.04,,2013-02-24 00:22:00,
2013-02-23 19:32:00,47.0,38.0,-100.00,WSW,248,1.0,3.0,73,0.00,,,0.04,,2013-02-24 00:32:00,
2013-02-23 19:42:00,45.0,38.0,-100.00,SW,233,0.0,2.0,77,0.00,,,0.04,,2013-02-24 00:42:00,
2013-02-23 19:52:00,45.0,38.0,-100.00,SW,233,0.0,2.0,77,0.00,,,0.04,,2013-02-24 00:52:00,
2013-02-23 20:01:00,45.0,38.0,-100.00,WSW,244,0.0,2.0,79,0.00,,,0.04,,2013-02-24 01:01:00,
2013-02-23 20:11:00,45.0,38.0,-100.00,WSW,244,0.0,2.0,79,0.00,,,0.04,,2013-02-24 01:11:00,
2013-02-23 20:22:00,45.0,38.0,-100.00,WSW,244,0.0,2.0,79,0.00,,,0.04,,2013-02-24 01:22:00,
2013-02-23 20:42:00,43.0,38.0,-100.00,West,281,1.0,2.0,81,0.00,,,0.04,,2013-02-24 01:42:00,
2013-02-23 20:52:00,42.0,37.0,-100.00,SW,219,1.0,2.0,84,0.00,,,0.04,,2013-02-24 01:52:00,
2013-02-23 21:01:00,42.0,37.0,-100.00,SW,219,1.0,2.0,84,0.00,,,0.04,,2013-02-24 02:01:00,
2013-02-23 21:11:00,42.0,37.0,-100.00,SW,219,1.0,2.0,84,0.00,,,0.04,,2013-02-24 02:11:00,
2013-02-23 21:22:00,41.0,37.0,-100.00,SW,233,2.0,2.0,86,0.00,,,0.04,,2013-02-24 02:22:00,
2013-02-23 21:32:00,41.0,37.0,-100.00,SW,233,2.0,2.0,86,0.00,,,0.04,,2013-02-24 02:32:00,
2013-02-23 21:42:00,41.0,37.0,-100.00,NE,41,0.0,2.0,84,0.00,,,0.04,,2013-02-24 02:42:00,
2013-02-23 21:52:00,41.0,37.0,-100.00,NE,41,0.0,2.0,84,0.00,,,0.04,,2013-02-24 02:52:00,
2013-02-23 22:02:00,42.0,37.0,-100.00,NE,52,1.0,4.0,84,0.00,,,0.04,,2013-02-24 03:02:00,
2013-02-23 22:12:00,42.0,37.0,-100.00,NE,52,1.0,4.0,84,0.00,,,0.04,,2013-02-24 03:12:00,
2013-02-23 22:22:00,41.0,37.0,-100.00,ENE,75,1.0,3.0,84,0.00,,,0.04,,2013-02-24 03:22:00,
2013-02-23 22:32:00,41.0,37.0,-100.00,ENE,75,1.0,3.0,84,0.00,,,0.04,,2013-02-24 03:32:00,
2013-02-23 22:42:00,40.0,36.0,-100.00,East,97,1.0,2.0,87,0.00,,,0.04,,2013-02-24 03:42:00,
2013-02-23 22:52:00,40.0,36.0,-100.00,East,97,1.0,2.0,87,0.00,,,0.04,,2013-02-24 03:52:00,
2013-02-23 23:02:00,39.0,36.0,-100.00,SW,234,2.0,4.0,89,0.00,,,0.04,,2013-02-24 04:02:00,
2013-02-23 23:11:00,39.0,36.0,-100.00,SW,234,2.0,4.0,89,0.00,,,0.04,,2013-02-24 04:11:00,
2013-02-23 23:22:00,39.0,36.0,-100.00,WSW,244,2.0,4.0,90,0.00,,,0.04,,2013-02-24 04:22:00,
2013-02-23 23:32:00,39.0,36.0,-100.00,WSW,244,2.0,4.0,90,0.00,,,0.04,,2013-02-24 04:32:00,
2013-02-23 23:42:00,38.0,35.0,-100.00,South,189,1.0,2.0,91,0.00,,,0.04,,2013-02-24 04:42:00,
2013-02-23 23:52:00,38.0,35.0,-100.00,South,189,1.0,2.0,91,0.00,,,0.04,,2013-02-24 04:52:00,